Regional Weather Roundup
Issued by NWS

Home | Current Version | Previous Version | Text Only | Print | Product List | Glossary On
Versions: 1 2 3 4 5 6 7 8 9 10 11 12 13 14 15 16 17 18 19 20 21 22 23 24 25 26 27 28
000
ASUS44 KLIX 181512
RWRLA
LOUISIANA WEATHER ROUNDUP
NATIONAL WEATHER SERVICE NEW ORLEANS LA
900 AM CST SAT NOV 18 2017

NOTE: "FAIR" INDICATES FEW OR NO CLOUDS BELOW 12,000 FEET WITH NO
      SIGNIFICANT WEATHER AND/OR OBSTRUCTIONS TO VISIBILITY.
      SKY/WX - SKY CONDITION AND SIGNIFICANT WEATHER.
      TMP - AIR TEMPERATURE.    DP   - DEWPOINT TEMPERATURE.
      RH  - RELATIVE HUMIDITY.  PRES - PRESSURE.
      HX  - HEAT INDEX.         WCI  - WIND CHILL INDEX.

*  THESE STATIONS ARE NOT NWS OR FAA STATIONS AND ARE NOT UNDER
   NWS QUALITY CONTROL.

LAZ040-048-061>063-065-066-069-181600-
SOUTHEAST LOUISIANA

CITY           SKY/WX    TMP DP  RH WIND       PRES   REMARKS
N.O. INTL ARPT PTSUNNY   76  69  79 S13       29.94S
N.O. LAKEFRONT SUNNY     75  67  76 S14       29.95R
N.O. DOWNTOWN* FAIR      74  66  76 S12       29.96R
RESERVE*       CLOUDY    74  66  77 S9        29.94R
SLIDELL        PTSUNNY   74  65  73 S10       29.94R
BATON ROUGE    MOSUNNY   74  66  76 S13       29.91S
BOOTHVILLE     SUNNY     77  67  71 S10       29.98R
BELLE CHASSE   NOT AVBL
BOGALUSA*      NOT AVBL
GALLIANO*      SUNNY     76  65  68 S13       29.96R
NEW ROADS*     FAIR      73  66  80 S10G16    29.90S
GONZALES*      FAIR      74  67  79 S12       29.92S
HAMMOND*       CLOUDY    70  66  88 S9        29.93S
HOUMA*         MOSUNNY   77  70  78 S12       29.94S
PORT FOURCHON* NOT AVBL

$$

LAZ041-044-053-054-181600-
SOUTHWEST LOUISIANA

CITY           SKY/WX    TMP DP  RH WIND       PRES   REMARKS
LAKE CHARLES   PTSUNNY   77  70  79 SW15G21   29.88R
LAFAYETTE      SUNNY     75  68  78 S14G22    29.90R
PATTERSON      MOSUNNY   76  68  76 SW14G22   29.93R
SALT POINT       N/A     74  68  81 VRB3      29.91S
NEW IBERIA     MOSUNNY   76  67  73 SW17G24   29.91S
CHENAULT AIRPK NOT AVBL

$$

LAZ027-028-181600-
CENTRAL LOUISIANA

CITY           SKY/WX    TMP DP  RH WIND       PRES   REMARKS
FORT POLK      CLOUDY    73  68  86 S13       29.83F
ALEXANDRIA INT CLOUDY    73  68  84 S12G22    29.81F
ALEXANDRIA     CLOUDY    73  68  84 S15G22    29.83F

$$

LAZ001-002-181600-
NORTHWEST LOUISIANA

CITY           SKY/WX    TMP DP  RH WIND       PRES   REMARKS
SHREVEPORT     CLOUDY    74  66  76 SW22G31   29.76R
BARKSDALE AFB  PTSUNNY   74  63  69 SW16G30   29.75R
DTN SHREVEPORT CLOUDY    75  65  70 SW24G30   29.75R

$$

LAZ014-016-181600-
NORTHEAST LOUISIANA

CITY           SKY/WX    TMP DP  RH WIND       PRES   REMARKS
MONROE         PTSUNNY   74  67  78 SW18G26   29.76S
TALLULAH       CLOUDY    73  66  78 SW17G26   29.81F

$$





USA.gov is the U.S. government's official web portal to all federal, state and local government web resources and services.